星链-32140 (STARLINK-32140)

导读 | 星芒AI

STARLINK-32140 是 SpaceX Starlink 卫星互联网项目中的第 32140 颗卫星。该卫星属于星链计划的中轨道卫星群,旨在为全球提供高速、低延迟的互联网服务。它于2024年发射,部署在约550公里高的轨道上,与其他星链卫星协同工作,提升网络覆盖与连接稳定性。该卫星采用先进推进系统和激光通信技术,有助于减少地面基站依赖,扩大偏远地区网络接入能力。

基本信息
目录编号:
61511
目录名称:
STARLINK-32140
国际标识:
2024-183C
轨道中心:
EARTH
卫星名称:
星链-32140
卫星全名:
星链-32140 (STARLINK-32140)
卫星状态:
在轨 (已飞行431 天)
发射日期:
2024-10-15 UTC
国别 :
美国 (US)
星等 :
--
轨道信息
数据来源 国际轨道数据 AOE轨道数据
星历时间 2025-12-19T19:29:58+0800
19小时前
查看轨道信息
2025-12-19T07:00:00+0800
1天前
查看轨道信息
半长轴 6853.371km 6853.37km
偏心率 0.0001178 0.0001458
轨道倾角 53.160° 53.158°
近地点辐角 92.515° 86.556°
升交点赤经 154.895° 157.316°
平近点角 267.598° 283.012°
近地点 474.426km 474.235km
远地点 476.042km 476.235km
周期 94.106分钟 94.106分钟
每日圈数 15.301938 15.301942
详细信息
固有亮度:
5
最大亮度:
2.5
卫星平台:
Starlink V1.0
覆盖范围:
全球
运营商:
太空探索技术公司
运营商所在国:
美国
制造商(研发单位):
太空探索技术公司
制造商所在国:
美国
使用方式:
暂无
卫星简介
Starlink 计划是 SpaceX 推出的全球卫星互联网项目,通过发射低轨道卫星,为全球尤其是偏远地区提供高速、低延迟的互联网服务。自 2019 年起,Starlink 已部署数千颗卫星,旨在缩小全球数字鸿沟,推动互联网普及。该项目还为军事、航空等行业提供通信支持,带来广泛经济效益。
2D轨道图
3D轨道图
轨道高度分析图
轨道倾角分析图
轨道综合分析图
查看轨道综合分析图